GW5770 Weather Reports


time (UTC)temp
C
wind
direction
speed
KPH
gust
KPH
rain 1hr
cm
rain 24hr
cm
rain mn
cm
humidity
%
barometer
mb
20260510045305 12 193 0.0 0.0 0.00 0.00 0.00 94 1011.1
20260510044759 12 193 0.0 0.0 0.00 0.00 0.00 93 1010.9
20260510044256 13 193 0.0 0.0 0.00 0.00 0.00 93 1011.1
20260510043752 13 193 0.0 0.0 0.00 0.00 0.00 93 1010.9
20260510043248 13 193 0.0 0.0 0.00 0.00 0.00 94 1011.0
20260510042746 13 194 0.0 0.0 0.00 0.00 0.00 93 1011.0
20260510042241 13 194 0.0 0.0 0.00 0.00 0.00 93 1011.1
20260510041738 13 194 0.0 0.0 0.00 0.00 0.00 93 1011.2
20260510041235 13 194 0.0 0.0 0.00 0.00 0.00 93 1011.0
20260510040733 13 194 0.0 0.0 0.00 0.00 0.00 92 1011.0
20260510040230 13 194 0.0 0.0 0.00 0.00 0.00 92 1011.3
20260510035725 13 194 0.0 0.0 0.00 0.00 0.00 92 1011.0
20260510035221 13 194 0.0 0.0 0.00 0.00 0.00 91 1011.1
20260510034716 13 194 0.0 0.0 0.00 0.00 0.00 91 1011.0
20260510034215 13 194 0.0 0.0 0.00 0.00 0.00 90 1011.0
20260510033710 13 194 0.0 0.0 0.00 0.00 0.00 90 1010.9
20260510033209 13 194 0.0 0.0 0.00 0.00 0.00 89 1010.8
20260510032705 13 194 0.0 0.0 0.00 0.00 0.00 88 1010.8
20260510032200 14 194 0.0 0.0 0.00 0.00 0.00 88 1010.7
20260510031655 14 194 0.0 0.0 0.00 0.00 0.00 88 1011.0
20260510031152 15 194 0.0 0.0 0.00 0.00 0.00 87 1010.9
20260510030652 15 194 0.0 0.0 0.00 0.00 0.00 87 1010.8
20260510030150 15 194 0.0 0.0 0.00 0.00 0.00 87 1010.8
20260510025647 15 194 0.0 0.0 0.00 0.00 0.00 86 1011.0
20260510025144 15 194 0.0 0.0 0.00 0.00 0.00 86 1011.0
20260510024641 15 194 0.0 0.0 0.00 0.00 0.00 85 1010.8
20260510024137 15 194 0.0 0.0 0.00 0.00 0.00 84 1010.8
20260510023633 15 194 0.0 0.0 0.00 0.00 0.00 83 1010.8
20260510023131 15 194 0.0 0.0 0.00 0.00 0.00 83 1010.7
20260510022631 16 194 0.0 0.0 0.00 0.00 0.00 82 1010.7
20260510022126 16 194 0.0 0.0 0.00 0.00 0.00 82 1010.6
20260510021622 16 194 0.0 0.0 0.00 0.00 0.00 81 1010.5
20260510021120 16 194 0.0 0.0 0.00 0.00 0.00 81 1010.6
20260510020613 16 194 0.0 0.0 0.00 0.00 0.00 81 1010.6
20260510020109 16 194 0.0 0.0 0.00 0.00 0.00 80 1010.6
20260510015605 16 194 0.0 0.0 0.00 0.00 0.00 80 1010.5
20260510015102 16 194 0.0 0.0 0.00 0.00 0.00 80 1010.4
20260510014557 16 194 0.0 0.0 0.00 0.00 0.00 80 1010.4
20260510014056 16 193 0.0 0.0 0.00 0.00 0.00 80 1010.3
20260510013555 16 195 0.0 0.0 0.00 0.00 0.00 80 1010.4
20260510013052 16 221 0.0 0.0 0.00 0.00 0.00 79 1010.3
20260510012551 16 191 0.0 0.0 0.00 0.00 0.00 79 1009.9
20260510012048 16 191 0.0 0.0 0.00 0.00 0.00 78 1009.7
20260510011547 16 191 0.0 0.0 0.00 0.00 0.00 78 1009.9
20260510011043 16 191 0.0 0.0 0.00 0.00 0.00 78 1009.6
20260510010540 16 191 0.0 0.0 0.00 0.00 0.00 78 1009.8
20260510010037 16 191 0.0 0.0 0.00 0.00 0.00 77 1009.3
20260510005533 16 191 0.0 0.0 0.00 0.00 0.00 76 1009.7
20260510005031 17 191 0.0 0.0 0.00 0.00 0.00 75 1009.6
20260510004528 17 191 0.0 0.0 0.00 0.00 0.00 73 1009.7
20260510004026 17 191 0.0 0.0 0.00 0.00 0.00 73 1009.3
20260510003523 17 191 0.0 0.0 0.00 0.00 0.00 72 1009.5
20260510003018 18 191 0.0 0.0 0.00 0.00 0.00 70 1009.3
20260510002514 18 191 0.0 0.0 0.00 0.00 0.00 69 1009.4
20260510002011 18 191 0.0 0.0 0.00 0.00 0.00 68 1009.4
20260510001508 19 191 0.0 0.0 0.00 0.00 0.00 66 1009.4
20260510001006 20 191 0.0 0.0 0.00 0.00 0.00 65 1009.3
20260510000501 20 191 0.0 0.0 0.00 0.00 0.00 64 1009.2
20260509235958 20 191 0.0 0.0 0.00 0.00 0.00 63 1009.2
20260509235455 21 191 0.0 0.0 0.00 0.00 0.00 61 1009.1
20260509234951 21 191 0.0 0.0 0.00 0.00 0.00 59 1009.2
20260509234448 21 191 0.0 0.0 0.00 0.00 0.00 59 1009.3
20260509233946 22 191 0.0 0.0 0.00 0.00 0.00 57 1009.0
20260509233443 22 192 0.0 0.0 0.00 0.00 0.00 56 1009.1
20260509232939 22 192 0.0 0.0 0.00 0.00 0.00 55 1008.9
20260509232437 22 192 0.0 0.0 0.00 0.00 0.00 55 1009.1
20260509231932 22 192 0.0 0.0 0.00 0.00 0.00 55 1009.1
20260509231430 22 187 0.0 0.0 0.00 0.00 0.00 54 1009.0
20260509230928 22 186 0.0 1.6 0.00 0.00 0.00 54 1008.9
20260509230424 22 188 3.2 3.2 0.00 0.00 0.00 54 1009.2
20260509225920 22 161 3.2 3.2 0.00 0.00 0.00 54 1008.9
20260509225417 22 196 1.6 9.7 0.00 0.00 0.00 54 1008.9
20260509224913 22 192 0.0 3.2 0.00 0.00 0.00 53 1009.2
20260509224414 23 192 3.2 4.8 0.00 0.00 0.00 52 1008.9
20260509223911 23 199 0.0 3.2 0.00 0.00 0.00 54 1009.1
20260509223408 22 160 6.4 6.4 0.00 0.00 0.00 52 1009.1
20260509222905 22 168 3.2 11.3 0.00 0.00 0.00 53 1008.9
20260509222400 23 156 4.8 9.7 0.00 0.00 0.00 50 1008.8
20260509221855 23 199 4.8 6.4 0.00 0.00 0.00 49 1008.8
20260509221353 23 194 1.6 1.6 0.00 0.00 0.00 48 1009.0
20260509220849 23 228 0.0 3.2 0.00 0.00 0.00 48 1008.9
20260509220345 24 310 1.6 3.2 0.00 0.00 0.00 47 1009.0
20260509215840 25 299 1.6 6.4 0.00 0.00 0.00 46 1009.1
20260509215337 25 258 3.2 9.7 0.00 0.00 0.00 44 1008.8
20260509214834 25 347 1.6 3.2 0.00 0.00 0.00 46 1008.8
20260509214332 25 189 0.0 4.8 0.00 0.00 0.00 46 1008.8
20260509213829 24 236 1.6 3.2 0.00 0.00 0.00 49 1009.0
20260509213324 23 242 1.6 4.8 0.00 0.00 0.00 52 1008.8
20260509212822 23 211 1.6 3.2 0.00 0.00 0.00 50 1008.9
20260509212320 24 240 3.2 4.8 0.00 0.00 0.00 48 1009.0
20260509211815 25 249 1.6 3.2 0.00 0.00 0.00 46 1008.9
20260509211311 25 269 3.2 4.8 0.00 0.00 0.00 48 1009.0
20260509210808 23 279 0.0 1.6 0.00 0.00 0.00 49 1009.0
20260509210306 23 205 1.6 4.8 0.00 0.00 0.00 49 1008.9
20260509205804 25 237 1.6 6.4 0.00 0.00 0.00 48 1008.9
20260509205300 24 244 4.8 6.4 0.00 0.00 0.00 47 1008.9
20260509204756 23 131 4.8 9.7 0.00 0.00 0.00 49 1009.0
20260509204252 23 214 3.2 11.3 0.00 0.00 0.00 50 1009.0
20260509203748 23 203 4.8 4.8 0.00 0.00 0.00 49 1008.9
20260509203246 23 179 3.2 9.7 0.00 0.00 0.00 49 1008.9
20260509202742 23 207 1.6 4.8 0.00 0.00 0.00 52 1008.6
20260509202238 23 90 4.8 9.7 0.00 0.00 0.00 49 1008.6
20260509201733 23 132 1.6 4.8 0.00 0.00 0.00 50 1008.9
20260509201230 23 204 8.0 11.3 0.00 0.00 0.00 50 1008.8
20260509200726 23 225 1.6 4.8 0.00 0.00 0.00 52 1009.0
20260509200221 23 133 6.4 16.1 0.00 0.00 0.00 51 1009.0
20260509195717 23 171 4.8 12.9 0.00 0.00 0.00 52 1009.3
20260509195213 23 247 3.2 9.7 0.00 0.00 0.00 52 1009.2
20260509194713 23 213 0.0 6.4 0.00 0.00 0.00 52 1009.4
20260509194209 23 185 6.4 6.4 0.00 0.00 0.00 49 1009.3
20260509193706 22 216 3.2 4.8 0.00 0.00 0.00 56 1009.4
20260509193201 22 338 3.2 9.7 0.00 0.00 0.00 56 1009.5
20260509192657 22 157 3.2 9.7 0.00 0.00 0.00 54 1009.7
20260509192158 22 186 3.2 6.4 0.00 0.00 0.00 54 1009.9
20260509191653 23 219 4.8 4.8 0.00 0.00 0.00 54 1010.0
20260509191150 23 183 0.0 3.2 0.00 0.00 0.00 54 1010.0
20260509190646 22 255 1.6 1.6 0.00 0.00 0.00 57 1010.0
20260509190143 21 242 1.6 1.6 0.00 0.00 0.00 58 1009.9
20260509185641 22 138 6.4 12.9 0.00 0.00 0.00 55 1009.9
20260509185137 22 160 3.2 4.8 0.00 0.00 0.00 54 1010.0
20260509184635 21 241 3.2 3.2 0.00 0.00 0.00 56 1009.9
20260509184131 21 165 1.6 3.2 0.00 0.00 0.00 57 1009.9
20260509183628 22 177 6.4 12.9 0.00 0.00 0.00 52 1010.0
20260509183123 22 217 0.0 1.6 0.00 0.00 0.00 55 1010.1
20260509182619 22 243 1.6 1.6 0.00 0.00 0.00 54 1010.2
20260509182117 21 220 0.0 0.0 0.00 0.00 0.00 55 1010.2
20260509181615 21 143 1.6 4.8 0.00 0.00 0.00 55 1010.4
20260509181111 21 219 0.0 1.6 0.00 0.00 0.00 56 1010.4
20260509180608 20 236 1.6 6.4 0.00 0.00 0.00 57 1010.6
20260509180105 20 184 0.0 3.2 0.00 0.00 0.00 59 1010.8
20260509175601 20 238 4.8 6.4 0.00 0.00 0.00 58 1010.7
20260509175058 20 234 1.6 1.6 0.00 0.00 0.00 59 1010.9
20260509174554 20 228 0.0 1.6 0.00 0.00 0.00 56 1010.9
20260509174049 21 211 0.0 4.8 0.00 0.00 0.00 56 1010.8
20260509173549 21 196 0.0 3.2 0.00 0.00 0.00 55 1010.9
20260509173046 21 203 3.2 6.4 0.00 0.00 0.00 54 1011.1
20260509172543 22 257 1.6 3.2 0.00 0.00 0.00 54 1010.9
20260509172039 22 211 3.2 4.8 0.00 0.00 0.00 55 1010.9
20260509171535 21 229 1.6 3.2 0.00 0.00 0.00 54 1011.1
20260509171032 22 261 3.2 6.4 0.00 0.00 0.00 52 1011.0
20260509170527 21 227 0.0 1.6 0.00 0.00 0.00 54 1011.1
20260509170023 21 241 1.6 3.2 0.00 0.00 0.00 55 1011.2
20260509165522 20 208 1.6 3.2 0.00 0.00 0.00 56 1011.1
20260509165018 20 223 4.8 6.4 0.00 0.00 0.00 54 1011.1
20260509164514 20 229 1.6 6.4 0.00 0.00 0.00 56 1011.3
20260509164010 20 202 6.4 11.3 0.00 0.00 0.00 55 1011.3
20260509163508 20 138 4.8 11.3 0.00 0.00 0.00 55 1011.3
20260509163008 21 223 0.0 6.4 0.00 0.00 0.00 55 1011.2
20260509162506 21 202 0.0 1.6 0.00 0.00 0.00 55 1011.1
20260509162001 21 213 1.6 9.7 0.00 0.00 0.00 55 1011.1
20260509161458 22 160 3.2 6.4 0.00 0.00 0.00 53 1011.4
20260509160953 22 227 1.6 4.8 0.00 0.00 0.00 53 1011.1
20260509160450 21 194 1.6 4.8 0.00 0.00 0.00 53 1011.2
20260509155949 21 210 0.0 1.6 0.00 0.00 0.00 55 1011.3
20260509155447 21 178 1.6 4.8 0.00 0.00 0.00 55 1011.3
20260509154943 21 211 4.8 14.5 0.00 0.00 0.00 54 1011.3
20260509154439 21 268 1.6 12.9 0.00 0.00 0.00 55 1011.6
20260509153937 20 208 1.6 6.4 0.00 0.00 0.00 55 1011.5
20260509153433 21 164 9.7 12.9 0.00 0.00 0.00 52 1011.5
20260509152931 21 225 0.0 6.4 0.00 0.00 0.00 54 1011.5
20260509152426 21 196 1.6 4.8 0.00 0.00 0.00 56 1011.6
20260509151924 21 183 0.0 3.2 0.00 0.00 0.00 55 1011.5
20260509151419 20 216 1.6 4.8 0.00 0.00 0.00 58 1011.6
20260509150918 20 188 6.4 11.3 0.00 0.00 0.00 56 1011.7
20260509150415 20 169 4.8 4.8 0.00 0.00 0.00 55 1011.7
20260509145914 20 154 4.8 4.8 0.00 0.00 0.00 56 1011.7
20260509145413 19 106 3.2 4.8 0.00 0.00 0.00 57 1011.7
20260509144909 18 297 3.2 3.2 0.00 0.00 0.00 60 1012.0
20260509144406 18 172 1.6 3.2 0.00 0.00 0.00 60 1011.9
20260509143903 18 185 1.6 3.2 0.00 0.00 0.00 61 1012.0
20260509143401 17 179 1.6 3.2 0.00 0.00 0.00 63 1012.2
20260509142857 16 162 1.6 11.3 0.00 0.00 0.00 63 1012.3
20260509142353 17 137 6.4 9.7 0.00 0.00 0.00 63 1012.3
20260509141849 17 189 4.8 6.4 0.00 0.00 0.00 63 1012.3
20260509141346 17 171 6.4 9.7 0.00 0.00 0.00 62 1012.3
20260509140843 16 169 1.6 4.8 0.00 0.00 0.00 62 1012.4
20260509140340 17 217 0.0 1.6 0.00 0.00 0.00 62 1012.2
20260509135838 16 226 0.0 1.6 0.00 0.00 0.00 62 1012.2
20260509135335 16 225 0.0 1.6 0.00 0.00 0.00 63 1012.3
20260509134832 16 209 0.0 6.4 0.00 0.00 0.00 62 1012.2
20260509134329 16 152 0.0 6.4 0.00 0.00 0.00 63 1012.2
20260509133826 16 165 3.2 4.8 0.00 0.00 0.00 62 1012.4
20260509133323 16 240 3.2 3.2 0.00 0.00 0.00 63 1012.3
20260509132822 16 252 0.0 1.6 0.00 0.00 0.00 62 1012.4
20260509132320 16 164 1.6 3.2 0.00 0.00 0.00 63 1012.4
20260509131816 16 217 0.0 1.6 0.00 0.00 0.00 65 1012.4
20260509131313 16 219 1.6 1.6 0.00 0.00 0.00 65 1012.5
20260509130809 16 236 0.0 1.6 0.00 0.00 0.00 65 1012.5
20260509130305 16 277 1.6 3.2 0.00 0.00 0.00 65 1012.4
20260509125802 16 207 0.0 3.2 0.00 0.00 0.00 64 1012.4
20260509125258 15 186 0.0 1.6 0.00 0.00 0.00 66 1012.2
20260509124755 15 179 3.2 4.8 0.00 0.00 0.00 65 1012.1
20260509124251 15 190 4.8 6.4 0.00 0.00 0.00 65 1012.2
20260509123750 15 178 3.2 4.8 0.00 0.00 0.00 64 1012.1
20260509123247 15 179 1.6 3.2 0.00 0.00 0.00 65 1012.2
20260509122742 15 153 6.4 9.7 0.00 0.00 0.00 64 1012.2
20260509122239 15 187 0.0 1.6 0.00 0.00 0.00 65 1012.0
20260509121736 15 335 3.2 11.3 0.00 0.00 0.00 64 1012.1
20260509121233 15 167 3.2 16.1 0.00 0.00 0.00 63 1012.3
20260509120732 15 204 1.6 3.2 0.00 0.00 0.00 64 1012.1
20260509120229 15 219 3.2 4.8 0.00 0.00 0.00 63 1012.2
20260509115727 15 183 1.6 3.2 0.00 0.00 0.00 63 1012.0
20260509115224 15 198 1.6 3.2 0.00 0.00 0.00 63 1012.2
20260509114722 15 225 3.2 3.2 0.00 0.00 0.00 62 1012.1
20260509114221 15 157 3.2 4.8 0.00 0.00 0.00 63 1012.2
20260509113719 15 197 1.6 3.2 0.00 0.00 0.00 63 1012.1
20260509113216 15 210 3.2 11.3 0.00 0.00 0.00 63 1012.0
20260509112712 15 207 1.6 3.2 0.00 0.00 0.00 63 1012.2
20260509112209 14 202 3.2 11.3 0.00 0.00 0.00 61 1011.9
20260509111706 14 219 0.0 1.6 0.00 0.00 0.00 61 1012.0
20260509111203 14 185 0.0 11.3 0.00 0.00 0.00 60 1011.9
20260509110701 14 186 1.6 9.7 0.00 0.00 0.00 59 1012.1
20260509110157 14 217 3.2 4.8 0.00 0.00 0.00 58 1012.0
20260509105655 14 221 1.6 4.8 0.00 0.00 0.00 58 1011.9
20260509105152 14 222 3.2 4.8 0.00 0.00 0.00 57 1011.7
20260509104649 14 172 0.0 4.8 0.00 0.00 0.00 56 1011.8
20260509104146 14 201 1.6 4.8 0.00 0.00 0.00 55 1011.7
20260509103644 14 220 0.0 1.6 0.00 0.00 0.00 56 1011.9
20260509103142 14 175 0.0 3.2 0.00 0.00 0.00 56 1011.8
20260509102639 14 217 1.6 1.6 0.00 0.00 0.00 55 1011.6
20260509102136 14 178 1.6 1.6 0.00 0.00 0.00 55 1011.5
20260509101632 14 231 0.0 1.6 0.00 0.00 0.00 56 1011.5
20260509101129 15 202 0.0 3.2 0.00 0.00 0.00 55 1011.7
20260509100627 14 181 0.0 1.6 0.00 0.00 0.00 54 1011.7
20260509100124 14 202 0.0 1.6 0.00 0.00 0.00 55 1011.7
20260509095620 14 188 1.6 3.2 0.00 0.00 0.00 55 1011.6
20260509095118 14 205 1.6 1.6 0.00 0.00 0.00 55 1011.3
20260509094613 15 205 0.0 1.6 0.00 0.00 0.00 55 1011.5
20260509094111 15 202 0.0 3.2 0.00 0.00 0.00 54 1011.4
20260509093610 15 197 0.0 1.6 0.00 0.00 0.00 55 1011.4
20260509093106 15 189 3.2 4.8 0.00 0.00 0.00 53 1011.7
20260509092604 15 194 1.6 4.8 0.00 0.00 0.00 54 1011.8
20260509092102 15 199 0.0 1.6 0.00 0.00 0.00 55 1011.6
20260509091600 14 215 0.0 3.2 0.00 0.00 0.00 56 1011.7
20260509091056 14 213 1.6 3.2 0.00 0.00 0.00 55 1011.4
20260509090553 14 187 1.6 3.2 0.00 0.00 0.00 55 1011.7
20260509090051 14 225 1.6 3.2 0.00 0.00 0.00 55 1011.6
20260509085548 14 236 1.6 6.4 0.00 0.00 0.00 55 1011.7
20260509085044 15 237 1.6 3.2 0.00 0.00 0.00 55 1011.9
20260509084541 15 239 3.2 9.7 0.00 0.00 0.00 54 1011.7
20260509084038 15 204 0.0 3.2 0.00 0.00 0.00 55 1011.8
20260509083536 15 219 6.4 9.7 0.00 0.00 0.00 54 1011.9
20260509083032 15 224 1.6 1.6 0.00 0.00 0.00 54 1011.9
20260509082530 15 230 1.6 4.8 0.00 0.00 0.00 54 1012.0
20260509082027 15 236 1.6 6.4 0.00 0.00 0.00 54 1012.0
20260509081524 15 214 3.2 4.8 0.00 0.00 0.00 54 1012.2
20260509081021 15 219 1.6 6.4 0.00 0.00 0.00 54 1012.1
20260509080519 15 231 3.2 4.8 0.00 0.00 0.00 55 1012.2
20260509080017 15 190 6.4 11.3 0.00 0.00 0.00 54 1012.3
20260509075513 15 176 3.2 6.4 0.00 0.00 0.00 54 1012.5
20260509075011 15 338 3.2 4.8 0.00 0.00 0.00 54 1012.3
20260509074508 15 188 3.2 6.4 0.00 0.00 0.00 54 1012.6
20260509074005 15 220 3.2 6.4 0.00 0.00 0.00 54 1012.3
20260509073501 15 207 3.2 6.4 0.00 0.00 0.00 54 1012.5
20260509072958 15 208 3.2 11.3 0.00 0.00 0.00 53 1012.4
20260509072455 15 21 3.2 6.4 0.00 0.00 0.00 54 1012.4
20260509071951 15 164 3.2 9.7 0.00 0.00 0.00 54 1012.5
20260509071448 14 246 3.2 6.4 0.00 0.00 0.00 54 1012.5
20260509070946 15 209 1.6 3.2 0.00 0.00 0.00 54 1012.4
20260509070442 15 204 3.2 14.5 0.00 0.00 0.00 53 1012.4
20260509065937 15 221 3.2 9.7 0.00 0.00 0.00 53 1012.6
20260509065434 15 230 1.6 4.8 0.00 0.00 0.00 54 1012.5
20260509064930 15 217 3.2 6.4 0.00 0.00 0.00 54 1012.4
20260509064428 15 199 3.2 4.8 0.00 0.00 0.00 53 1012.6
20260509063926 15 169 4.8 6.4 0.00 0.00 0.00 53 1012.5
20260509063421 15 256 1.6 11.3 0.00 0.00 0.00 53 1012.6
20260509062919 15 207 4.8 4.8 0.00 0.00 0.00 53 1012.7
20260509062416 15 150 4.8 9.7 0.00 0.00 0.00 53 1012.7
20260509061913 15 218 1.6 3.2 0.00 0.00 0.00 53 1012.9
20260509061411 15 215 0.0 6.4 0.00 0.00 0.00 53 1012.9
20260509060907 15 203 1.6 4.8 0.00 0.00 0.00 52 1012.8
20260509060405 15 254 1.6 4.8 0.00 0.00 0.00 52 1012.6
20260509055859 15 233 1.6 3.2 0.00 0.00 0.00 52 1012.7
20260509055355 15 216 1.6 14.5 0.00 0.00 0.00 51 1012.7
20260509054853 15 301 3.2 9.7 0.00 0.00 0.00 51 1012.6
20260509054349 15 216 1.6 3.2 0.00 0.00 0.00 51 1012.7
20260509053848 15 225 3.2 9.7 0.00 0.00 0.00 51 1012.9
20260509053345 15 204 1.6 3.2 0.00 0.00 0.00 52 1012.8
20260509052843 15 169 3.2 9.7 0.00 0.00 0.00 51 1012.8
20260509052340 15 215 1.6 11.3 0.00 0.00 0.00 51 1012.9
20260509051838 15 195 3.2 9.7 0.00 0.00 0.00 51 1012.8
20260509051336 15 182 1.6 6.4 0.00 0.00 0.00 51 1012.9
20260509050832 15 189 3.2 6.4 0.00 0.00 0.00 51 1012.9
20260509050329 15 162 3.2 4.8 0.00 0.00 0.00 51 1012.8
20260509045826 15 213 0.0 4.8 0.00 0.00 0.00 51 1012.8